Theta_e
342 346 348 348 348 348 348 348 347 344 340 340 342 342 344 345 345 345 345 344 343 342 341 341 341 341 342 343 343 343 344 344 346 347 347 347 345 343 343 344 344 344
339 344 347 348 348 348 348 347 348 347 344 343 344 343 343 344 345 344 345 344 343 342 342 342 341 342 342 343 343 344 345 345 346 347 347 346 343 341 341 341 342 342
335 340 344 347 347 347 347 347 348 348 348 347 347 345 344 344 344 344 344 345 344 344 344 343 343 343 343 344 344 345 346 347 348 348 347 345 343 341 340 340 340 340
333 336 339 343 346 347 346 347 347 348 349 349 349 346 345 345 344 344 344 344 345 345 345 345 346 346 345 345 345 346 347 348 348 348 347 346 345 343 342 341 340 340
333 334 335 338 343 346 346 345 346 347 347 349 349 348 346 345 345 344 343 344 344 345 346 346 347 347 347 346 346 346 347 347 347 348 348 348 347 345 344 343 343 342
333 333 334 335 339 344 346 345 345 345 345 346 348 348 347 346 346 345 344 343 343 343 344 345 346 347 347 347 346 346 346 346 346 346 346 347 346 346 345 345 345 344
333 333 333 334 335 340 344 345 345 344 343 344 345 346 347 347 346 346 345 344 344 344 344 344 344 346 347 347 346 345 345 345 344 344 344 345 344 344 344 344 345 345
336 334 334 334 334 336 340 342 343 342 342 343 343 344 345 345 345 345 345 345 345 345 346 345 344 345 348 348 346 345 344 344 343 343 344 343 342 343 343 343 344 344
337 335 334 334 334 334 336 338 340 340 340 340 341 342 343 343 344 344 343 344 344 345 346 346 345 346 347 347 347 346 344 343 343 342 342 342 342 342 342 342 343 343
339 338 336 335 334 334 334 335 337 337 337 337 338 340 340 341 342 342 342 342 342 344 345 345 346 346 346 346 346 345 344 343 342 341 341 341 340 340 341 342 342 342
344 343 341 338 335 335 334 334 335 335 336 336 336 337 337 338 338 339 341 341 342 343 344 344 345 346 346 345 345 344 343 341 340 340 340 339 338 338 337 338 339 339
346 346 345 343 339 337 335 335 334 334 334 335 335 336 337 337 336 335 336 337 339 341 342 343 344 345 345 345 344 343 342 341 340 339 339 338 336 335 335 335 335 336
347 347 346 346 344 340 336 335 334 333 333 333 334 335 336 337 336 334 333 333 335 338 340 341 342 344 345 345 344 344 344 343 342 341 339 338 336 335 335 335 334 334
346 346 346 346 347 345 342 339 337 335 334 333 333 333 334 334 334 334 333 332 332 334 337 340 341 342 344 345 345 346 345 345 344 344 343 341 340 340 339 339 338 336
345 346 346 346 347 347 347 346 343 339 337 335 334 334 333 333 333 333 333 333 332 332 333 337 339 339 340 343 345 346 346 346 346 345 344 344 343 343 343 342 342 341
345 346 346 347 346 347 348 349 349 347 345 342 339 336 334 334 333 334 334 334 333 333 332 333 334 335 337 340 343 345 346 347 347 346 345 345 344 344 344 344 343 343
346 346 346 347 349 348 347 348 350 351 351 349 346 343 340 337 335 335 337 336 335 334 332 332 332 333 334 336 339 342 345 347 347 346 346 345 344 344 344 344 344 344
349 349 348 348 350 351 350 349 350 352 352 352 350 349 348 346 343 340 340 340 340 338 337 337 336 334 332 333 337 341 344 346 346 346 346 345 344 344 343 343 343 344
351 351 350 350 351 351 352 352 352 353 353 353 352 351 351 351 350 347 346 346 347 346 345 344 342 338 335 334 336 340 344 345 345 346 346 345 345 344 344 344 344 343
350 350 350 350 351 351 352 353 353 353 353 353 353 352 351 351 351 351 351 351 352 351 350 349 346 343 339 337 337 340 342 344 345 345 346 345 345 345 345 345 344 344
348 349 349 349 350 350 351 351 352 352 352 352 352 352 351 351 351 352 352 353 353 352 351 351 349 346 344 341 340 341 342 343 345 345 345 346 345 345 345 345 345 345
343 344 345 347 348 349 350 350 350 350 350 350 351 350 351 351 351 351 351 351 352 352 351 350 349 349 347 346 345 344 344 344 345 345 346 346 346 346 346 345 345 345
339 339 340 342 343 344 345 346 346 347 348 348 348 348 348 349 350 350 351 351 351 351 351 350 350 350 349 349 348 348 347 346 346 346 345 345 346 347 347 347 347 347
335 336 337 338 339 340 341 341 341 343 345 345 344 344 345 346 347 348 349 350 350 351 350 350 350 350 349 349 349 349 348 348 348 348 347 347 347 348 348 348 349 349
335 336 336 336 337 337 338 339 339 340 340 340 339 340 340 340 342 344 347 349 349 350 350 350 350 350 350 351 351 350 349 349 349 350 350 350 351 351 351 351 351 351
334 336 335 335 336 336 336 337 337 337 337 337 337 337 337 337 338 341 343 344 344 345 346 348 349 349 349 350 350 350 350 350 350 351 351 351 352 352 352 352 353 353
Wind_Speed
15 15 13 10 10 8 7 6 6 7 7 7 6 5 5 6 6 6 6 7 7 7 7 8 8 8 8 8 7 7 6 6 6 7 7 7 7 8 9 9 10 10
15 14 13 11 10 9 7 7 7 7 7 6 5 5 6 6 6 6 6 7 7 7 8 7 7 7 8 8 7 7 6 6 6 7 7 7 8 8 8 9 10 10
14 14 13 12 11 10 8 7 7 7 7 6 6 6 6 6 6 6 6 7 7 7 8 7 7 7 7 7 7 7 6 6 6 7 7 8 8 8 9 9 9 9
14 14 14 12 11 10 9 8 7 7 7 7 6 6 7 7 7 7 7 7 7 7 7 7 7 7 7 7 7 7 7 6 6 7 7 7 8 8 9 9 9 9
14 14 14 13 12 12 11 9 8 7 7 7 6 6 7 8 8 7 7 7 7 7 7 7 6 6 6 6 7 7 7 6 7 7 7 7 8 9 9 9 9 9
15 15 15 14 13 13 12 10 9 8 7 8 7 7 7 7 7 7 7 7 7 7 7 7 7 7 6 6 7 7 6 6 7 7 7 8 8 9 9 9 9 9
15 15 15 15 15 14 13 12 10 9 8 8 9 8 8 7 7 7 7 7 8 8 8 9 9 8 7 7 7 7 7 7 7 7 7 7 8 8 8 8 9 9
14 15 15 15 15 15 15 13 12 11 10 9 10 10 9 9 8 7 8 8 9 9 9 9 9 9 8 8 8 8 8 7 7 7 7 7 7 7 7 8 9 9
15 14 15 15 15 16 15 15 14 13 12 11 10 10 10 10 9 9 9 9 9 10 10 10 10 10 9 9 9 8 8 8 8 8 8 8 8 8 7 8 9 9
13 14 14 15 16 16 16 16 16 15 13 12 11 11 11 10 10 10 10 10 10 10 10 10 10 10 10 10 9 9 9 9 9 9 9 9 9 9 9 9 10 10
13 13 13 14 16 17 17 17 17 17 16 15 14 13 12 11 11 11 10 11 11 10 10 10 10 10 10 10 10 10 10 9 9 9 9 9 10 10 10 11 11 11
15 14 14 14 15 17 18 18 18 18 18 17 16 15 14 13 13 12 12 12 12 12 12 11 10 10 10 9 9 10 10 10 10 10 10 10 10 11 11 11 12 12
18 17 17 16 15 16 17 18 19 19 19 19 18 17 17 16 15 15 15 14 14 13 13 12 11 11 10 9 9 9 9 9 9 9 10 10 10 10 10 10 11 12
20 19 18 18 16 16 17 18 19 19 20 20 20 19 19 18 18 17 17 16 16 16 15 14 13 12 11 10 10 9 9 9 9 9 9 9 8 8 8 9 10 11
22 21 20 19 18 17 17 17 18 19 20 20 20 21 21 20 19 19 18 18 18 17 17 16 15 14 13 12 11 11 10 10 10 10 10 10 9 9 9 8 9 9
22 21 19 19 20 20 19 18 18 18 19 19 20 21 21 21 20 20 20 20 19 19 19 19 18 17 16 14 13 12 12 12 12 12 12 12 11 11 10 10 10 10
23 22 21 20 20 21 21 21 20 19 18 18 19 20 21 21 21 21 20 20 20 20 20 19 19 19 18 17 16 15 14 14 14 14 14 14 14 14 13 12 12 13
23 22 23 23 21 21 22 23 22 20 19 19 19 20 20 21 22 22 21 20 20 20 20 20 20 20 20 19 18 18 17 16 15 15 15 16 16 16 15 15 15 15
22 23 24 25 24 23 23 23 23 21 20 20 20 21 22 22 23 22 21 20 19 20 20 20 21 21 20 20 19 19 18 17 16 16 16 16 17 17 17 17 17 17
17 20 21 22 22 22 21 22 22 21 21 21 21 22 23 24 24 23 22 20 20 21 20 21 21 21 20 20 20 19 19 18 17 17 17 17 17 18 19 19 19 19
11 13 14 13 13 13 14 16 17 18 18 19 19 20 21 22 22 22 22 22 22 22 21 22 23 22 21 21 21 20 19 19 19 19 19 19 19 19 20 20 21 21
8 7 7 7 7 7 8 9 9 10 11 12 13 13 13 13 14 16 18 21 22 22 23 25 25 24 23 23 22 22 21 21 21 21 21 21 21 21 21 21 22 22
9 8 7 5 5 5 5 6 6 6 6 6 7 6 6 6 7 10 14 16 17 18 21 23 24 24 24 24 23 23 22 22 22 23 23 24 23 23 23 23 23 23
9 9 9 8 8 8 7 5 4 4 5 5 5 4 4 3 2 5 8 11 13 16 18 19 20 21 21 21 20 20 20 20 20 20 22 23 24 24 25 25 26 26
9 9 10 9 9 10 10 8 7 7 6 5 3 2 1 1 2 4 7 9 11 12 12 13 14 15 15 15 16 17 17 17 17 17 19 21 22 23 23 25 26 26
9 9 9 9 9 9 9 8 7 8 8 7 6 5 4 2 2 5 7 7 8 8 8 9 11 12 12 13 14 15 15 15 15 15 16 18 19 20 20 21 21 20
Wind_Direction
202 201 198 195 195 191 191 200 207 204 195 193 196 198 196 193 192 193 191 190 189 193 200 202 202 203 207 210 214 220 228 234 243 256 268 277 277 272 264 260 261 265
202 202 202 202 201 197 195 200 207 206 196 190 193 197 200 198 196 195 193 192 191 192 198 201 206 211 215 218 221 225 232 239 246 257 268 274 275 273 272 269 268 268
210 208 207 209 210 206 202 202 207 209 206 201 196 195 200 202 204 203 198 197 195 197 201 202 207 215 220 224 226 226 229 239 247 254 261 265 269 271 273 274 273 274
216 216 214 215 217 214 210 208 209 213 215 215 208 202 201 204 208 210 206 204 202 202 205 207 212 218 222 226 228 229 233 240 246 250 256 260 265 268 270 270 272 274
221 221 220 220 219 218 216 214 215 218 219 218 216 213 209 206 209 213 214 213 211 212 215 217 219 221 226 231 234 238 241 245 248 250 254 257 259 263 265 266 269 273
225 223 222 222 222 222 221 219 221 226 226 222 218 220 219 216 218 223 227 226 223 225 228 229 228 226 233 240 242 246 248 250 254 254 253 254 254 256 258 262 266 270
226 226 225 224 224 225 225 223 223 225 228 227 223 223 225 226 230 234 238 240 237 236 237 237 233 231 238 248 252 254 255 256 259 257 256 256 254 253 255 261 266 266
226 228 228 227 226 227 227 226 226 225 226 228 227 225 226 229 234 237 241 244 243 244 244 241 237 235 242 254 260 262 263 263 264 263 263 263 261 258 258 262 266 265
228 229 230 230 230 230 229 230 230 230 229 230 230 228 227 229 232 237 242 244 245 247 247 245 242 242 248 257 262 265 265 265 267 267 267 270 270 267 264 264 266 266
232 234 234 234 234 234 233 232 234 234 233 232 233 234 235 234 235 238 240 243 245 246 247 247 245 244 247 251 254 258 260 262 265 266 267 269 270 269 268 267 267 268
237 240 241 240 239 239 239 238 238 238 236 235 234 237 241 243 243 243 245 246 247 246 245 245 244 245 247 248 251 253 255 259 263 265 268 269 269 269 269 268 268 268
241 241 243 242 241 242 243 243 243 242 240 239 238 239 243 247 250 251 251 252 251 249 246 243 242 244 246 248 249 249 251 256 261 264 267 269 271 273 273 274 273 272
242 239 238 238 238 239 240 243 245 245 243 241 241 241 243 247 252 255 256 255 254 252 248 244 241 240 242 241 240 243 248 254 259 264 267 269 272 275 276 277 277 277
246 243 241 239 239 239 240 241 243 245 245 244 243 242 243 245 248 251 253 254 253 252 249 245 241 237 237 237 237 241 247 254 260 263 267 270 271 274 277 278 279 280
250 249 246 244 243 243 243 243 244 245 247 248 247 246 245 245 245 247 248 248 249 249 248 246 243 239 236 236 241 248 252 258 261 261 264 267 267 268 272 273 275 279
248 249 249 247 244 242 242 243 244 245 247 249 251 251 249 247 245 244 245 245 246 246 247 248 248 245 239 235 236 242 249 257 260 261 261 263 264 264 264 265 267 270
243 245 245 245 244 241 240 241 244 245 245 247 248 250 251 249 246 243 243 245 246 247 248 250 251 250 246 239 234 232 236 243 248 253 255 255 257 258 257 259 263 267
239 240 241 242 243 241 240 241 244 245 245 246 247 248 248 248 247 245 244 246 249 251 251 252 252 253 251 246 240 235 236 240 243 247 250 252 254 255 255 257 259 264
235 236 238 240 241 241 240 241 243 245 246 247 249 249 248 247 247 246 245 246 250 253 254 253 253 253 253 250 245 241 242 246 250 252 255 256 257 259 260 261 262 264
219 221 226 232 236 238 238 240 242 245 246 247 247 247 247 246 245 245 245 247 250 252 252 253 252 252 251 250 247 244 244 249 255 260 262 264 265 265 265 265 266 267
191 200 207 213 220 226 230 233 236 239 240 242 242 243 245 246 246 247 249 250 251 251 250 250 251 251 251 250 248 247 247 250 256 262 266 269 271 271 270 268 267 268
147 165 179 186 194 202 211 215 217 221 227 231 236 240 244 246 247 248 249 248 249 249 248 249 251 252 252 253 252 252 252 254 258 263 267 269 272 276 276 275 273 271
111 116 124 137 153 164 182 197 200 202 204 207 212 214 216 224 234 242 245 244 242 242 244 247 250 251 253 254 255 256 257 260 262 264 266 266 269 274 278 280 280 279
95 96 99 105 112 117 122 135 151 165 174 183 193 197 199 211 247 264 256 243 236 238 243 245 247 249 251 252 253 255 257 261 265 267 268 268 269 272 276 279 280 280
109 107 107 110 110 108 107 107 107 109 113 116 121 126 153 234 248 256 252 237 228 230 235 239 243 247 251 253 256 259 262 265 268 268 268 268 271 273 276 277 278 279
124 124 122 120 114 111 112 111 105 97 93 89 83 81 83 110 199 228 240 238 230 223 223 231 242 251 259 264 266 269 272 274 275 274 273 275 277 279 280 280 280 279